| time (UTC) | temp F | wind direction | speed knots | gust knots | rain 1hr in | rain 24hr in | rain mn in | humidity % | barometer mb |
| 20260506175800 | 55 | 312 | 0.9 | 2.6 | 0.00 | 0.00 | 0.00 | 88 | 1019.2 |
| 20260506175257 | 55 | 267 | 2.6 | 5.2 | 0.00 | 0.00 | 0.00 | 88 | 1019.0 |
| 20260506174754 | 55 | 245 | 2.6 | 4.3 | 0.00 | 0.00 | 0.00 | 88 | 1019.0 |
| 20260506174252 | 54 | 234 | 1.7 | 2.6 | 0.00 | 0.00 | 0.00 | 88 | 1018.9 |
| 20260506173749 | 55 | 207 | 1.7 | 2.6 | 0.00 | 0.00 | 0.00 | 88 | 1019.1 |
| 20260506173246 | 54 | 201 | 1.7 | 3.5 | 0.00 | 0.00 | 0.00 | 89 | 1018.9 |
| 20260506172742 | 54 | 134 | 1.7 | 2.6 | 0.00 | 0.00 | 0.00 | 89 | 1019.1 |
| 20260506172239 | 54 | 284 | 2.6 | 6.1 | 0.00 | 0.00 | 0.00 | 89 | 1018.9 |
| 20260506171737 | 54 | 257 | 2.6 | 2.6 | 0.00 | 0.00 | 0.00 | 90 | 1019.0 |
| 20260506171234 | 54 | 246 | 1.7 | 2.6 | 0.00 | 0.00 | 0.00 | 89 | 1019.0 |
| 20260506170731 | 54 | 241 | 2.6 | 5.2 | 0.00 | 0.00 | 0.00 | 89 | 1018.9 |
| 20260506170228 | 54 | 242 | 3.5 | 4.3 | 0.00 | 0.00 | 0.00 | 88 | 1019.0 |
| 20260506165726 | 54 | 243 | 1.7 | 3.5 | 0.00 | 0.00 | 0.00 | 89 | 1019.0 |
| 20260506165223 | 54 | 246 | 3.5 | 3.5 | 0.00 | 0.00 | 0.00 | 90 | 1019.0 |
| 20260506164721 | 54 | 249 | 3.5 | 10.4 | 0.00 | 0.00 | 0.00 | 89 | 1018.9 |
| 20260506164217 | 54 | 273 | 1.7 | 9.6 | 0.00 | 0.00 | 0.00 | 89 | 1018.9 |
| 20260506163714 | 54 | 189 | 3.5 | 6.1 | 0.00 | 0.00 | 0.00 | 88 | 1019.1 |
| 20260506163209 | 54 | 241 | 1.7 | 3.5 | 0.00 | 0.00 | 0.00 | 89 | 1019.1 |
| 20260506162705 | 54 | 264 | 2.6 | 3.5 | 0.00 | 0.00 | 0.00 | 88 | 1019.1 |
| 20260506162203 | 54 | 261 | 2.6 | 3.5 | 0.00 | 0.00 | 0.00 | 89 | 1018.9 |
| 20260506161700 | 54 | 200 | 2.6 | 3.5 | 0.00 | 0.00 | 0.00 | 87 | 1019.0 |
| 20260506161156 | 55 | 219 | 3.5 | 6.1 | 0.00 | 0.00 | 0.00 | 88 | 1019.2 |
| 20260506160654 | 55 | 248 | 5.2 | 5.2 | 0.00 | 0.00 | 0.00 | 87 | 1019.1 |
| 20260506160151 | 55 | 214 | 0.9 | 2.6 | 0.00 | 0.00 | 0.00 | 88 | 1019.1 |
| 20260506155649 | 55 | 212 | 4.3 | 4.3 | 0.00 | 0.00 | 0.00 | 89 | 1019.1 |
| 20260506155146 | 55 | 250 | 2.6 | 2.6 | 0.00 | 0.00 | 0.00 | 89 | 1019.0 |
| 20260506153248 | 54 | 237 | 1.7 | 2.6 | 0.00 | 0.00 | 0.00 | 89 | 1018.8 |
| 20260506152745 | 54 | 240 | 2.6 | 3.5 | 0.00 | 0.00 | 0.00 | 89 | 1018.7 |
| 20260506152242 | 54 | 241 | 2.6 | 3.5 | 0.00 | 0.00 | 0.00 | 89 | 1018.6 |
| 20260506151741 | 54 | 222 | 2.6 | 3.5 | 0.00 | 0.00 | 0.00 | 89 | 1018.5 |
| 20260506151237 | 54 | 189 | 1.7 | 2.6 | 0.00 | 0.00 | 0.00 | 90 | 1018.5 |
| 20260506150734 | 53 | 200 | 2.6 | 3.5 | 0.00 | 0.00 | 0.00 | 91 | 1018.3 |
| 20260506150231 | 53 | 200 | 1.7 | 2.6 | 0.00 | 0.00 | 0.00 | 91 | 1018.5 |
| 20260506145728 | 53 | 172 | 0.9 | 1.7 | 0.00 | 0.00 | 0.00 | 91 | 1018.5 |
| 20260506145225 | 53 | 223 | 2.6 | 3.5 | 0.00 | 0.00 | 0.00 | 91 | 1018.4 |
| 20260506144722 | 53 | 179 | 1.7 | 2.6 | 0.00 | 0.00 | 0.00 | 91 | 1018.2 |
| 20260506144219 | 53 | 183 | 2.6 | 2.6 | 0.00 | 0.00 | 0.00 | 92 | 1018.4 |
| 20260506143716 | 53 | 199 | 1.7 | 3.5 | 0.00 | 0.00 | 0.00 | 91 | 1018.3 |
| 20260506143214 | 52 | 212 | 2.6 | 2.6 | 0.00 | 0.00 | 0.00 | 92 | 1018.2 |
| 20260506142712 | 52 | 239 | 1.7 | 2.6 | 0.00 | 0.00 | 0.00 | 92 | 1018.6 |
| 20260506142210 | 52 | 191 | 1.7 | 4.3 | 0.00 | 0.00 | 0.00 | 93 | 1018.4 |
| 20260506141708 | 52 | 217 | 1.7 | 2.6 | 0.00 | 0.00 | 0.00 | 93 | 1018.4 |
| 20260506141206 | 52 | 224 | 1.7 | 2.6 | 0.00 | 0.00 | 0.00 | 94 | 1018.4 |
| 20260506140703 | 51 | 210 | 1.7 | 2.6 | 0.00 | 0.00 | 0.00 | 94 | 1018.5 |
| 20260506140200 | 51 | 199 | 1.7 | 2.6 | 0.00 | 0.00 | 0.00 | 94 | 1018.4 |
| 20260506135657 | 51 | 194 | 2.6 | 3.5 | 0.00 | 0.00 | 0.00 | 95 | 1018.2 |
| 20260506135153 | 51 | 219 | 2.6 | 3.5 | 0.00 | 0.00 | 0.00 | 95 | 1018.2 |
| 20260506134650 | 51 | 212 | 2.6 | 4.3 | 0.00 | 0.00 | 0.00 | 95 | 1018.1 |
| 20260506134146 | 51 | 186 | 2.6 | 4.3 | 0.00 | 0.00 | 0.00 | 95 | 1018.1 |
| 20260506133643 | 51 | 149 | 3.5 | 3.5 | 0.00 | 0.00 | 0.00 | 95 | 1018.1 |
| 20260506133140 | 50 | 189 | 2.6 | 3.5 | 0.00 | 0.00 | 0.00 | 95 | 1017.9 |
| 20260506132637 | 50 | 191 | 2.6 | 3.5 | 0.00 | 0.00 | 0.00 | 96 | 1018.1 |
| 20260506132134 | 50 | 204 | 2.6 | 2.6 | 0.00 | 0.00 | 0.00 | 96 | 1018.0 |
| 20260506131632 | 50 | 175 | 2.6 | 3.5 | 0.00 | 0.00 | 0.00 | 96 | 1018.0 |
| 20260506131128 | 50 | 190 | 0.9 | 3.5 | 0.00 | 0.00 | 0.00 | 96 | 1018.1 |
| 20260506130625 | 49 | 195 | 2.6 | 3.5 | 0.00 | 0.00 | 0.00 | 96 | 1018.1 |
| 20260506130122 | 49 | 186 | 2.6 | 4.3 | 0.00 | 0.00 | 0.00 | 96 | 1017.9 |
| 20260506125620 | 49 | 204 | 3.5 | 3.5 | 0.00 | 0.00 | 0.00 | 96 | 1017.9 |
| 20260506125117 | 49 | 215 | 2.6 | 3.5 | 0.00 | 0.00 | 0.00 | 96 | 1018.0 |
| 20260506124615 | 49 | 224 | 3.5 | 3.5 | 0.00 | 0.00 | 0.00 | 96 | 1017.9 |
| 20260506124113 | 49 | 216 | 3.5 | 4.3 | 0.00 | 0.00 | 0.00 | 96 | 1017.9 |
| 20260506123611 | 49 | 187 | 0.9 | 2.6 | 0.00 | 0.00 | 0.00 | 97 | 1018.0 |
| 20260506123109 | 49 | 200 | 2.6 | 2.6 | 0.00 | 0.00 | 0.00 | 96 | 1017.9 |
| 20260506122605 | 49 | 233 | 1.7 | 2.6 | 0.00 | 0.00 | 0.00 | 96 | 1017.6 |
| 20260506122103 | 49 | 220 | 2.6 | 2.6 | 0.00 | 0.00 | 0.00 | 96 | 1017.9 |
| 20260506121601 | 49 | 220 | 3.5 | 3.5 | 0.00 | 0.00 | 0.00 | 96 | 1017.9 |
| 20260506121057 | 49 | 225 | 2.6 | 4.3 | 0.00 | 0.00 | 0.00 | 96 | 1017.8 |
| 20260506120555 | 50 | 206 | 2.6 | 2.6 | 0.00 | 0.00 | 0.00 | 96 | 1017.7 |
| 20260506120051 | 49 | 202 | 1.7 | 2.6 | 0.00 | 0.00 | 0.00 | 96 | 1017.7 |
| 20260506115549 | 49 | 195 | 2.6 | 2.6 | 0.00 | 0.00 | 0.00 | 96 | 1017.7 |
| 20260506115048 | 49 | 176 | 2.6 | 2.6 | 0.00 | 0.00 | 0.00 | 96 | 1017.6 |
| 20260506114545 | 49 | 217 | 2.6 | 3.5 | 0.00 | 0.00 | 0.00 | 96 | 1017.7 |
| 20260506114043 | 49 | 218 | 2.6 | 3.5 | 0.00 | 0.00 | 0.00 | 96 | 1017.9 |
| 20260506113541 | 49 | 219 | 2.6 | 2.6 | 0.00 | 0.00 | 0.00 | 96 | 1017.6 |
| 20260506113038 | 49 | 194 | 2.6 | 2.6 | 0.00 | 0.00 | 0.00 | 96 | 1017.5 |
| 20260506112534 | 50 | 222 | 2.6 | 2.6 | 0.00 | 0.00 | 0.00 | 96 | 1017.4 |
| 20260506112032 | 50 | 223 | 2.6 | 2.6 | 0.00 | 0.00 | 0.00 | 96 | 1017.5 |
| 20260506111530 | 50 | 249 | 2.6 | 2.6 | 0.00 | 0.00 | 0.00 | 96 | 1017.4 |
| 20260506111027 | 50 | 233 | 2.6 | 3.5 | 0.00 | 0.00 | 0.00 | 96 | 1017.4 |
| 20260506110524 | 50 | 232 | 2.6 | 4.3 | 0.00 | 0.00 | 0.00 | 96 | 1017.4 |
| 20260506110021 | 50 | 246 | 1.7 | 2.6 | 0.00 | 0.00 | 0.00 | 95 | 1017.2 |
| 20260506105517 | 50 | 232 | 2.6 | 2.6 | 0.00 | 0.00 | 0.00 | 95 | 1017.2 |
| 20260506105015 | 50 | 213 | 2.6 | 2.6 | 0.00 | 0.00 | 0.00 | 95 | 1016.9 |
| 20260506104513 | 50 | 219 | 4.3 | 4.3 | 0.00 | 0.00 | 0.00 | 95 | 1017.0 |
| 20260506104010 | 51 | 234 | 0.9 | 3.5 | 0.00 | 0.00 | 0.00 | 94 | 1016.9 |
| 20260506103507 | 51 | 229 | 1.7 | 2.6 | 0.00 | 0.00 | 0.00 | 94 | 1016.8 |
| 20260506103004 | 51 | 189 | 0.9 | 2.6 | 0.00 | 0.00 | 0.00 | 94 | 1016.7 |
| 20260506102502 | 51 | 216 | 0.9 | 3.5 | 0.00 | 0.00 | 0.00 | 94 | 1016.7 |
| 20260506101959 | 51 | 146 | 3.5 | 4.3 | 0.00 | 0.00 | 0.00 | 95 | 1016.6 |
| 20260506101455 | 51 | 164 | 2.6 | 5.2 | 0.00 | 0.00 | 0.00 | 95 | 1016.6 |
| 20260506100953 | 51 | 184 | 2.6 | 2.6 | 0.00 | 0.00 | 0.00 | 95 | 1016.6 |
| 20260506100451 | 51 | 190 | 1.7 | 2.6 | 0.00 | 0.00 | 0.00 | 95 | 1016.5 |
| 20260506095949 | 51 | 170 | 1.7 | 2.6 | 0.00 | 0.00 | 0.00 | 95 | 1016.7 |
| 20260506095447 | 51 | 196 | 2.6 | 2.6 | 0.00 | 0.00 | 0.00 | 95 | 1016.6 |
| 20260506094943 | 51 | 201 | 1.7 | 2.6 | 0.00 | 0.00 | 0.00 | 94 | 1016.5 |
| 20260506094442 | 51 | 183 | 1.7 | 2.6 | 0.00 | 0.00 | 0.00 | 94 | 1016.6 |
| 20260506093939 | 52 | 205 | 1.7 | 2.6 | 0.00 | 0.00 | 0.00 | 94 | 1016.6 |
| 20260506093437 | 52 | 182 | 2.6 | 2.6 | 0.00 | 0.00 | 0.00 | 94 | 1016.6 |
| 20260506092934 | 51 | 177 | 2.6 | 3.5 | 0.00 | 0.00 | 0.00 | 95 | 1016.6 |
| 20260506092432 | 51 | 176 | 1.7 | 2.6 | 0.00 | 0.00 | 0.00 | 94 | 1016.5 |
| 20260506091928 | 51 | 186 | 2.6 | 3.5 | 0.00 | 0.00 | 0.00 | 94 | 1016.4 |
| 20260506091427 | 51 | 193 | 3.5 | 4.3 | 0.00 | 0.00 | 0.00 | 95 | 1016.5 |
| 20260506090923 | 51 | 197 | 2.6 | 2.6 | 0.00 | 0.00 | 0.00 | 94 | 1016.6 |
| 20260506090421 | 51 | 211 | 2.6 | 2.6 | 0.00 | 0.00 | 0.00 | 94 | 1016.5 |
| 20260506085918 | 52 | 217 | 2.6 | 3.5 | 0.00 | 0.00 | 0.00 | 94 | 1016.5 |
| 20260506085414 | 52 | 234 | 1.7 | 2.6 | 0.00 | 0.00 | 0.00 | 94 | 1016.4 |
| 20260506084911 | 52 | 194 | 0.9 | 2.6 | 0.00 | 0.00 | 0.00 | 94 | 1016.3 |
| 20260506084408 | 52 | 201 | 1.7 | 2.6 | 0.00 | 0.00 | 0.00 | 94 | 1016.4 |
| 20260506083904 | 52 | 214 | 2.6 | 2.6 | 0.00 | 0.00 | 0.00 | 94 | 1016.4 |
| 20260506083401 | 52 | 216 | 2.6 | 3.5 | 0.00 | 0.00 | 0.00 | 93 | 1016.2 |
| 20260506082858 | 52 | 188 | 2.6 | 2.6 | 0.00 | 0.00 | 0.00 | 93 | 1016.3 |
| 20260506082355 | 52 | 212 | 2.6 | 4.3 | 0.00 | 0.00 | 0.00 | 92 | 1016.3 |
| 20260506081851 | 53 | 213 | 2.6 | 4.3 | 0.00 | 0.00 | 0.00 | 92 | 1016.2 |
| 20260506081350 | 53 | 214 | 2.6 | 2.6 | 0.00 | 0.00 | 0.00 | 92 | 1016.2 |
| 20260506080847 | 53 | 210 | 2.6 | 3.5 | 0.00 | 0.00 | 0.00 | 92 | 1016.0 |
| 20260506080343 | 53 | 198 | 2.6 | 3.5 | 0.00 | 0.00 | 0.00 | 92 | 1016.2 |
| 20260506073328 | 54 | 198 | 2.6 | 3.5 | 0.00 | 0.00 | 0.00 | 90 | 1015.9 |
| 20260506072824 | 55 | 218 | 3.5 | 4.3 | 0.00 | 0.00 | 0.00 | 89 | 1015.8 |
| 20260506072322 | 55 | 226 | 2.6 | 4.3 | 0.00 | 0.00 | 0.00 | 89 | 1015.7 |
| 20260506071819 | 55 | 211 | 3.5 | 3.5 | 0.00 | 0.00 | 0.00 | 89 | 1015.8 |
| 20260506071317 | 55 | 206 | 2.6 | 3.5 | 0.00 | 0.00 | 0.00 | 88 | 1015.7 |
| 20260506070814 | 55 | 188 | 1.7 | 4.3 | 0.00 | 0.00 | 0.00 | 88 | 1015.6 |
| 20260506070311 | 56 | 167 | 2.6 | 2.6 | 0.00 | 0.00 | 0.00 | 87 | 1015.7 |
| 20260506062248 | 56 | 185 | 2.6 | 2.6 | 0.00 | 0.00 | 0.00 | 87 | 1015.4 |
| 20260506061744 | 56 | 209 | 1.7 | 2.6 | 0.00 | 0.00 | 0.00 | 87 | 1015.4 |
| 20260506061241 | 56 | 194 | 2.6 | 2.6 | 0.00 | 0.00 | 0.00 | 86 | 1015.4 |
| 20260506060740 | 56 | 212 | 2.6 | 3.5 | 0.00 | 0.00 | 0.00 | 87 | 1015.2 |
| 20260506060237 | 56 | 201 | 2.6 | 2.6 | 0.00 | 0.00 | 0.00 | 87 | 1015.3 |
| 20260506051209 | 56 | 214 | 1.7 | 1.7 | 0.00 | 0.00 | 0.00 | 87 | 1015.0 |
| 20260506050707 | 56 | 295 | 1.7 | 1.7 | 0.00 | 0.00 | 0.00 | 87 | 1014.8 |
| 20260506050204 | 56 | 220 | 2.6 | 2.6 | 0.00 | 0.00 | 0.00 | 86 | 1014.9 |
| 20260506044655 | 57 | 250 | 2.6 | 2.6 | 0.00 | 0.00 | 0.00 | 85 | 1014.8 |
| 20260506044151 | 57 | 214 | 0.9 | 2.6 | 0.00 | 0.00 | 0.00 | 84 | 1014.8 |
| 20260506043649 | 58 | 297 | 0.9 | 1.7 | 0.00 | 0.00 | 0.00 | 84 | 1014.6 |
| 20260506043147 | 58 | 269 | 0.9 | 1.7 | 0.00 | 0.00 | 0.00 | 84 | 1014.6 |
| 20260506042646 | 58 | 198 | 0.9 | 0.9 | 0.00 | 0.00 | 0.00 | 83 | 1014.7 |
| 20260506042143 | 58 | 208 | 0.9 | 2.6 | 0.00 | 0.00 | 0.00 | 82 | 1014.6 |
| 20260506041641 | 59 | 323 | 1.7 | 2.6 | 0.00 | 0.00 | 0.00 | 81 | 1014.4 |
| 20260506041138 | 59 | 172 | 0.0 | 1.7 | 0.00 | 0.00 | 0.00 | 81 | 1014.4 |
| 20260506040635 | 59 | 212 | 2.6 | 3.5 | 0.00 | 0.00 | 0.00 | 81 | 1014.2 |
| 20260506040132 | 59 | 253 | 1.7 | 3.5 | 0.00 | 0.00 | 0.00 | 80 | 1014.2 |
| 20260506035629 | 60 | 292 | 2.6 | 2.6 | 0.00 | 0.00 | 0.00 | 79 | 1014.1 |
| 20260506035126 | 60 | 252 | 1.7 | 2.6 | 0.00 | 0.00 | 0.00 | 80 | 1014.1 |
| 20260506034623 | 60 | 246 | 1.7 | 3.5 | 0.00 | 0.00 | 0.00 | 79 | 1014.3 |
| 20260506034120 | 60 | 226 | 2.6 | 4.3 | 0.00 | 0.00 | 0.00 | 80 | 1014.1 |
| 20260506033617 | 60 | 262 | 1.7 | 2.6 | 0.00 | 0.00 | 0.00 | 80 | 1014.0 |
| 20260506033114 | 60 | 289 | 1.7 | 2.6 | 0.00 | 0.00 | 0.00 | 79 | 1013.8 |
| 20260506032612 | 61 | 219 | 2.6 | 3.5 | 0.00 | 0.00 | 0.00 | 78 | 1013.9 |
| 20260506032108 | 61 | 240 | 1.7 | 2.6 | 0.00 | 0.00 | 0.00 | 78 | 1013.7 |
| 20260506031606 | 61 | 249 | 2.6 | 3.5 | 0.00 | 0.00 | 0.00 | 77 | 1013.9 |
| 20260506031102 | 61 | 280 | 1.7 | 2.6 | 0.00 | 0.00 | 0.00 | 78 | 1013.6 |
| 20260506030601 | 62 | 261 | 2.6 | 3.5 | 0.00 | 0.00 | 0.00 | 77 | 1013.5 |
| 20260506030057 | 62 | 304 | 2.6 | 2.6 | 0.00 | 0.00 | 0.00 | 77 | 1013.6 |
| 20260506025554 | 62 | 277 | 1.7 | 3.5 | 0.00 | 0.00 | 0.00 | 76 | 1013.5 |
| 20260506025050 | 62 | 249 | 2.6 | 3.5 | 0.00 | 0.00 | 0.00 | 76 | 1013.7 |
| 20260506024548 | 62 | 310 | 1.7 | 2.6 | 0.00 | 0.00 | 0.00 | 76 | 1013.7 |
| 20260506024044 | 63 | 169 | 0.0 | 2.6 | 0.00 | 0.00 | 0.00 | 75 | 1013.5 |
| 20260506023540 | 63 | 244 | 2.6 | 3.5 | 0.00 | 0.00 | 0.00 | 75 | 1013.7 |
| 20260506023038 | 63 | 233 | 1.7 | 2.6 | 0.00 | 0.00 | 0.00 | 73 | 1013.5 |
| 20260506022535 | 64 | 263 | 2.6 | 3.5 | 0.00 | 0.00 | 0.00 | 74 | 1013.7 |
| 20260506022032 | 64 | 250 | 2.6 | 2.6 | 0.00 | 0.00 | 0.00 | 73 | 1013.6 |
| 20260506021530 | 65 | 260 | 2.6 | 2.6 | 0.00 | 0.00 | 0.00 | 73 | 1013.6 |
| 20260506021027 | 65 | 228 | 1.7 | 6.1 | 0.00 | 0.00 | 0.00 | 71 | 1013.4 |
| 20260506020525 | 66 | 243 | 3.5 | 3.5 | 0.00 | 0.00 | 0.00 | 70 | 1013.6 |
| 20260506020022 | 66 | 226 | 5.2 | 6.1 | 0.00 | 0.00 | 0.00 | 69 | 1013.5 |
| 20260506015519 | 66 | 271 | 2.6 | 5.2 | 0.00 | 0.00 | 0.00 | 70 | 1013.4 |
| 20260506015016 | 67 | 234 | 2.6 | 4.3 | 0.00 | 0.00 | 0.00 | 69 | 1013.5 |
| 20260506014514 | 67 | 252 | 2.6 | 3.5 | 0.00 | 0.00 | 0.00 | 69 | 1013.2 |
| 20260506014009 | 67 | 214 | 1.7 | 4.3 | 0.00 | 0.00 | 0.00 | 68 | 1013.4 |
| 20260506013508 | 67 | 278 | 1.7 | 3.5 | 0.00 | 0.00 | 0.00 | 67 | 1013.2 |
| 20260506013004 | 68 | 290 | 2.6 | 2.6 | 0.00 | 0.00 | 0.00 | 67 | 1013.2 |
| 20260506012500 | 68 | 248 | 1.7 | 3.5 | 0.00 | 0.00 | 0.00 | 67 | 1013.3 |
| 20260506011957 | 68 | 217 | 6.1 | 6.1 | 0.00 | 0.00 | 0.00 | 66 | 1013.2 |
| 20260506011454 | 68 | 254 | 2.6 | 3.5 | 0.00 | 0.00 | 0.00 | 67 | 1013.3 |
| 20260506010951 | 68 | 250 | 2.6 | 2.6 | 0.00 | 0.00 | 0.00 | 67 | 1013.1 |
| 20260506010450 | 68 | 289 | 2.6 | 5.2 | 0.00 | 0.00 | 0.00 | 66 | 1013.3 |
| 20260506005945 | 68 | 242 | 3.5 | 3.5 | 0.00 | 0.00 | 0.00 | 67 | 1013.3 |
| 20260506005444 | 68 | 346 | 0.0 | 3.5 | 0.00 | 0.00 | 0.00 | 66 | 1013.2 |
| 20260506004938 | 68 | 226 | 6.1 | 11.3 | 0.00 | 0.00 | 0.00 | 65 | 1013.4 |
| 20260506004437 | 68 | 79 | 1.7 | 6.1 | 0.00 | 0.00 | 0.00 | 65 | 1013.3 |
| 20260506003932 | 69 | 239 | 2.6 | 5.2 | 0.00 | 0.00 | 0.00 | 64 | 1013.2 |
| 20260506003429 | 69 | 189 | 1.7 | 3.5 | 0.00 | 0.00 | 0.00 | 64 | 1013.4 |
| 20260506002926 | 69 | 239 | 2.6 | 6.1 | 0.00 | 0.00 | 0.00 | 63 | 1013.4 |
| 20260506002422 | 69 | 331 | 2.6 | 8.7 | 0.00 | 0.00 | 0.00 | 63 | 1013.3 |
| 20260506001917 | 70 | 249 | 7.0 | 8.7 | 0.00 | 0.00 | 0.00 | 62 | 1013.3 |
| 20260506001415 | 71 | 239 | 2.6 | 5.2 | 0.00 | 0.00 | 0.00 | 63 | 1013.3 |
| 20260506000912 | 71 | 243 | 4.3 | 4.3 | 0.00 | 0.00 | 0.00 | 60 | 1013.3 |
| 20260506000409 | 71 | 264 | 2.6 | 7.8 | 0.00 | 0.00 | 0.00 | 61 | 1013.2 |
| 20260505235906 | 71 | 215 | 1.7 | 3.5 | 0.00 | 0.00 | 0.00 | 60 | 1013.4 |
| 20260505235404 | 72 | 319 | 0.9 | 3.5 | 0.00 | 0.00 | 0.00 | 58 | 1013.3 |
| 20260505234900 | 73 | 206 | 2.6 | 3.5 | 0.00 | 0.00 | 0.00 | 58 | 1013.3 |
| 20260505234358 | 73 | 268 | 2.6 | 6.1 | 0.00 | 0.00 | 0.00 | 57 | 1013.5 |
| 20260505233854 | 73 | 198 | 4.3 | 5.2 | 0.00 | 0.00 | 0.00 | 57 | 1013.4 |
| 20260505233353 | 73 | 259 | 2.6 | 5.2 | 0.00 | 0.00 | 0.00 | 58 | 1013.5 |
| 20260505232850 | 73 | 295 | 5.2 | 5.2 | 0.00 | 0.00 | 0.00 | 58 | 1013.6 |
| 20260505232348 | 74 | 269 | 3.5 | 3.5 | 0.00 | 0.00 | 0.00 | 56 | 1013.8 |
| 20260505231844 | 73 | 6 | 2.6 | 7.8 | 0.00 | 0.00 | 0.00 | 57 | 1013.8 |
| 20260505231341 | 74 | 228 | 7.0 | 7.8 | 0.00 | 0.00 | 0.00 | 55 | 1013.7 |
| 20260505230840 | 74 | 293 | 1.7 | 5.2 | 0.00 | 0.00 | 0.00 | 56 | 1013.7 |
| 20260505230337 | 73 | 249 | 3.5 | 7.8 | 0.00 | 0.00 | 0.00 | 56 | 1013.7 |
| 20260505225833 | 75 | 259 | 2.6 | 4.3 | 0.00 | 0.00 | 0.00 | 54 | 1013.9 |
| 20260505225331 | 75 | 237 | 4.3 | 5.2 | 0.00 | 0.00 | 0.00 | 54 | 1014.0 |
| 20260505224825 | 75 | 208 | 1.7 | 5.2 | 0.00 | 0.00 | 0.00 | 53 | 1013.9 |
| 20260505224324 | 75 | 230 | 1.7 | 5.2 | 0.00 | 0.00 | 0.00 | 54 | 1014.0 |
| 20260505223820 | 73 | 236 | 3.5 | 6.1 | 0.00 | 0.00 | 0.00 | 56 | 1013.8 |
| 20260505223317 | 73 | 293 | 4.3 | 4.3 | 0.00 | 0.00 | 0.00 | 57 | 1013.9 |
| 20260505222813 | 73 | 300 | 1.7 | 4.3 | 0.00 | 0.00 | 0.00 | 55 | 1014.0 |
| 20260505222309 | 73 | 225 | 4.3 | 7.8 | 0.00 | 0.00 | 0.00 | 54 | 1014.0 |
| 20260505221807 | 72 | 322 | 2.6 | 4.3 | 0.00 | 0.00 | 0.00 | 55 | 1013.9 |
| 20260505221303 | 72 | 265 | 4.3 | 5.2 | 0.00 | 0.00 | 0.00 | 56 | 1014.0 |
| 20260505220800 | 73 | 299 | 3.5 | 6.1 | 0.00 | 0.00 | 0.00 | 56 | 1014.2 |
| 20260505220257 | 72 | 244 | 6.1 | 6.1 | 0.00 | 0.00 | 0.00 | 56 | 1014.2 |
| 20260505215755 | 72 | 248 | 3.5 | 5.2 | 0.00 | 0.00 | 0.00 | 60 | 1014.2 |
| 20260505215253 | 71 | 285 | 3.5 | 8.7 | 0.00 | 0.00 | 0.00 | 57 | 1014.1 |
| 20260505214750 | 72 | 240 | 6.1 | 7.0 | 0.00 | 0.00 | 0.00 | 57 | 1014.1 |
| 20260505214248 | 71 | 247 | 2.6 | 5.2 | 0.00 | 0.00 | 0.00 | 60 | 1014.3 |
| 20260505213745 | 71 | 211 | 6.1 | 8.7 | 0.00 | 0.00 | 0.00 | 60 | 1014.3 |
| 20260505213243 | 71 | 249 | 3.5 | 7.8 | 0.00 | 0.00 | 0.00 | 59 | 1014.2 |
| 20260505212738 | 71 | 153 | 0.9 | 9.6 | 0.00 | 0.00 | 0.00 | 58 | 1014.5 |
| 20260505212235 | 71 | 268 | 2.6 | 7.0 | 0.00 | 0.00 | 0.00 | 61 | 1014.3 |
| 20260505211732 | 71 | 267 | 4.3 | 8.7 | 0.00 | 0.00 | 0.00 | 62 | 1014.1 |
| 20260505211230 | 71 | 95 | 1.7 | 5.2 | 0.00 | 0.00 | 0.00 | 61 | 1014.3 |
| 20260505210726 | 70 | 321 | 2.6 | 6.1 | 0.00 | 0.00 | 0.00 | 62 | 1014.3 |
| 20260505210223 | 71 | 200 | 3.5 | 7.0 | 0.00 | 0.00 | 0.00 | 63 | 1014.3 |
| 20260505205720 | 70 | 117 | 0.0 | 3.5 | 0.00 | 0.00 | 0.00 | 62 | 1014.4 |
| 20260505205218 | 70 | 176 | 3.5 | 4.3 | 0.00 | 0.00 | 0.00 | 63 | 1014.1 |
| 20260505204715 | 70 | 241 | 4.3 | 12.2 | 0.00 | 0.00 | 0.00 | 62 | 1014.2 |
| 20260505204213 | 70 | 331 | 3.5 | 4.3 | 0.00 | 0.00 | 0.00 | 64 | 1014.4 |
| 20260505203710 | 69 | 241 | 3.5 | 11.3 | 0.00 | 0.00 | 0.00 | 64 | 1014.4 |
| 20260505203207 | 69 | 242 | 1.7 | 7.8 | 0.00 | 0.00 | 0.00 | 63 | 1014.4 |
| 20260505202702 | 69 | 291 | 2.6 | 7.8 | 0.00 | 0.00 | 0.00 | 62 | 1014.5 |
| 20260505202158 | 70 | 30 | 2.6 | 5.2 | 0.00 | 0.00 | 0.00 | 62 | 1014.3 |
| 20260505201655 | 70 | 205 | 1.7 | 3.5 | 0.00 | 0.00 | 0.00 | 63 | 1014.5 |
| 20260505201153 | 69 | 225 | 2.6 | 6.1 | 0.00 | 0.00 | 0.00 | 63 | 1014.4 |
| 20260505200651 | 69 | 185 | 0.9 | 4.3 | 0.00 | 0.00 | 0.00 | 63 | 1014.5 |
| 20260505200147 | 70 | 267 | 5.2 | 9.6 | 0.00 | 0.00 | 0.00 | 61 | 1014.5 |
| 20260505195643 | 70 | 253 | 3.5 | 7.8 | 0.00 | 0.00 | 0.00 | 62 | 1014.5 |
| 20260505195141 | 70 | 334 | 3.5 | 5.2 | 0.00 | 0.00 | 0.00 | 62 | 1014.4 |
| 20260505194638 | 70 | 265 | 4.3 | 5.2 | 0.00 | 0.00 | 0.00 | 62 | 1014.5 |
| 20260505194134 | 69 | 231 | 3.5 | 4.3 | 0.00 | 0.00 | 0.00 | 62 | 1014.6 |
| 20260505193630 | 69 | 240 | 5.2 | 7.0 | 0.00 | 0.00 | 0.00 | 63 | 1014.6 |
| 20260505193127 | 69 | 141 | 1.7 | 4.3 | 0.00 | 0.00 | 0.00 | 63 | 1014.5 |
| 20260505192626 | 69 | 107 | 2.6 | 8.7 | 0.00 | 0.00 | 0.00 | 63 | 1014.6 |
| 20260505192123 | 70 | 200 | 3.5 | 4.3 | 0.00 | 0.00 | 0.00 | 62 | 1014.5 |
| 20260505191622 | 69 | 276 | 2.6 | 7.0 | 0.00 | 0.00 | 0.00 | 63 | 1014.3 |
| 20260505191119 | 69 | 195 | 3.5 | 9.6 | 0.00 | 0.00 | 0.00 | 62 | 1014.6 |
| 20260505190615 | 69 | 268 | 1.7 | 4.3 | 0.00 | 0.00 | 0.00 | 61 | 1014.5 |
| 20260505190110 | 70 | 161 | 1.7 | 5.2 | 0.00 | 0.00 | 0.00 | 60 | 1014.5 |
| 20260505185607 | 69 | 234 | 0.9 | 10.4 | 0.00 | 0.00 | 0.00 | 62 | 1014.5 |
| 20260505185103 | 69 | 328 | 1.7 | 3.5 | 0.00 | 0.00 | 0.00 | 64 | 1014.5 |
| 20260505184600 | 69 | 202 | 0.9 | 7.8 | 0.00 | 0.00 | 0.00 | 62 | 1014.5 |
| 20260505184057 | 69 | 174 | 2.6 | 5.2 | 0.00 | 0.00 | 0.00 | 61 | 1014.5 |
| 20260505183553 | 68 | 114 | 1.7 | 4.3 | 0.00 | 0.00 | 0.00 | 63 | 1014.5 |
| 20260505183051 | 68 | 234 | 1.7 | 7.8 | 0.00 | 0.00 | 0.00 | 60 | 1014.6 |
| 20260505182547 | 69 | 75 | 0.9 | 5.2 | 0.00 | 0.00 | 0.00 | 59 | 1014.6 |
| 20260505182044 | 69 | 107 | 7.0 | 7.8 | 0.00 | 0.00 | 0.00 | 58 | 1014.5 |
| 20260505181541 | 69 | 228 | 5.2 | 6.1 | 0.00 | 0.00 | 0.00 | 58 | 1014.7 |
| 20260505181038 | 69 | 205 | 4.3 | 6.1 | 0.00 | 0.00 | 0.00 | 58 | 1014.6 |
| 20260505180533 | 69 | 218 | 3.5 | 6.1 | 0.00 | 0.00 | 0.00 | 57 | 1014.6 |